This demonstration page uses our WeatherBlox Daily Observations layout. Learn more.

Left ArrowRight Arrow

39.29038, -76.61219

Hourly Observations for April 7, 2020

Temp ( °F °C ) Dew Point ( °F °C ) Humidity (%) Winds ( mph kmh ) Pressure ( in mb ) Visibility ( mi km ) Precip ( " mm )
12:54 am 00:54 undefined 56 13.3 29 -1.7 36 36 undefined N/A 30.01 1016 N/A 0.00 0.00
1:54 am 01:54 undefined 56 13.3 29 -1.7 36 36 undefined N/A 30.00 1016 N/A 0.00 0.00
2:54 am 02:54 undefined 55 12.8 34 1.1 45 45 undefined N/A 29.98 1015 N/A 0.00 0.00
3:54 am 03:54 undefined 55 12.8 30 -1.1 38 38 undefined N/A 29.97 1015 N/A 0.00 0.00
4:54 am 04:54 undefined 56 13.3 34 1.1 44 44 undefined N/A 29.97 1015 N/A 0.00 0.00
5:54 am 05:54 undefined 56 13.3 39 3.9 53 53 undefined N/A 29.96 1015 N/A 0.00 0.00
6:54 am 06:54 undefined 57 13.9 46 7.8 67 67 undefined N/A 29.96 1015 N/A 0.00 0.00
7:54 am 07:54 undefined 56 13.3 49 9.4 77 77 undefined N/A 29.97 1015 N/A 0.00 0.00
8:54 am 08:54 undefined 57 13.9 48 8.9 72 72 undefined N/A 29.97 1015 N/A 0.00 0.00
9:54 am 09:54 undefined 61 16.1 50 10 67 67 undefined N/A 29.95 1014 N/A 0.00 0.00
10:54 am 10:54 undefined 62 16.7 52 11.1 70 70 undefined N/A 29.94 1014 N/A 0.00 0.00
11:54 am 11:54 undefined 65 18.3 54 12.2 68 68 undefined N/A 29.92 1013 N/A 0.00 0.00
12:54 pm 12:54 undefined 68 20 54 12.2 61 61 undefined N/A 29.89 1012 N/A 0.00 0.00
1:54 pm 13:54 undefined 66 18.9 54 12.2 65 65 undefined N/A 29.87 1011 N/A 0.00 0.00
2:54 pm 14:54 undefined 64 17.8 54 12.2 70 70 undefined N/A 29.85 1011 N/A 0.00 0.00
3:54 pm 15:54 undefined 64 17.8 50 10 60 60 undefined N/A 29.84 1010 N/A 0.00 0.00
4:54 pm 16:54 undefined 65 18.3 52 11.1 63 63 undefined N/A 29.79 1009 N/A 0.00 0.00
5:54 pm 17:54 undefined 66 18.9 51 10.6 59 59 undefined N/A 29.76 1008 N/A 0.00 0.00
6:54 pm 18:54 undefined 66 18.9 52 11.1 61 61 undefined N/A 29.77 1008 N/A 0.00 0.00
7:54 pm 19:54 undefined 64 17.8 53 11.7 68 68 undefined N/A 29.76 1008 N/A 0.00 0.00
8:54 pm 20:54 undefined 63 17.2 55 12.8 76 76 undefined N/A 29.75 1008 N/A 0.00 0.00
9:54 pm 21:54 undefined 62 16.7 54 12.2 75 75 undefined N/A 29.74 1007 N/A 0.00 0.00
10:54 pm 22:54 undefined 61 16.1 55 12.8 81 81 undefined N/A 29.71 1006 N/A 0.00 0.00
11:54 pm 23:54 undefined 60 15.6 56 13.3 86 86 undefined N/A 29.69 1005 N/A 0.06 1.52

Powered by AerisWeather